West Palm Beach, FL

8:53 AM EST on December 08, 2019 (GMT -0500)
Palm Beach International

Weather History for KPBI - October, 2019

Change the Weather History Date:

Saturday, October 12, 2019

  Actual Average Record
Temperature  
Mean Temperature 80 °F 79 °F  
Max Temperature 83 °F 86 °F 93 °F (1946)
Min Temperature 77 °F 73 °F 59 °F (1903)
Degree Days  
Heating Degree Days 0 0  
Month to date heating degree days 0 0  
Since 1 July heating degree days 0 0  
Cooling Degree Days 15 14  
Month to date cooling degree days 203 179  
Year to date cooling degree days 3912 3387  
Growing Degree Days 30 (Base 50)    
Moisture  
Dew Point 67 °F    
Average Humidity 66    
Maximum Humidity 74    
Minimum Humidity 58    
Precipitation  
Precipitation T in 0.17 in 4.70 in (1947)
Month to date precipitation 4.16 2.31  
Year to date precipitation 49.51 51.38  
Snow  
Snow 0.00 in - - ()
Month to date snowfall 0.0  
Since 1 July snowfall 0.0  
Since 1 September snowfall 0.0  
Snow Depth 0.00 in    
Sea Level Pressure  
Sea Level Pressure 29.99 in    
Wind  
Wind Speed 12 mph (ENE)    
Max Wind Speed 18 mph    
Max Gust Speed 22 mph    
Visibility 10 miles    
Events      
T = Trace of Precipitation, MM = Missing Value Source: NWS Daily Summary

Daily Weather History Graph

Daily Weather History Graph

Search for Another Location

Airport or City:

Astronomy

Oct. 12, 2019 Rise Set
Actual Time 7:18 AM EDT 6:55 PM EDT
Civil Twilight 6:54 AM EDT 7:18 PM EDT
Nautical Twilight 6:27 AM EDT 7:45 PM EDT
Astronomical Twilight 6:01 AM EDT 8:12 PM EDT
Moon 6:39 PM EDT (10/12) 6:08 AM EDT (10/12)
Length of Visible Light 12h 23m
Length of Day
11h 37m
Waxing Gibbous, 99% of the Moon is Illuminated
Oct 12
Waxing Gibbous
Oct 13
Full
Oct 21
Last Quarter
Oct 27
New
Nov 4
First Quarter

Hourly Weather History & Observations

Time (EDT) Temp. Heat Index Dew Point Humidity Pressure Visibility Wind Dir Wind Speed Gust Speed Precip Events Conditions
12:53 AM 79.0 °F - 66.0 °F 64% 30.00 in 10.0 mi ENE 11.5 mph - N/A   Scattered Clouds
1:53 AM 78.1 °F - 66.0 °F 66% 29.99 in 10.0 mi ENE 10.4 mph - N/A   Scattered Clouds
2:53 AM 79.0 °F - 66.0 °F 64% 29.98 in 10.0 mi ENE 9.2 mph - N/A   Overcast
3:53 AM 78.1 °F - 66.0 °F 66% 29.96 in 10.0 mi ENE 9.2 mph - N/A   Mostly Cloudy
4:53 AM 78.1 °F - 66.0 °F 66% 29.95 in 10.0 mi ENE 10.4 mph - N/A   Partly Cloudy
5:53 AM 78.1 °F - 66.9 °F 68% 29.96 in 10.0 mi ENE 9.2 mph - N/A   Scattered Clouds
6:53 AM 78.1 °F - 66.9 °F 68% 29.97 in 10.0 mi ENE 9.2 mph - N/A   Scattered Clouds
7:53 AM 78.1 °F - 66.9 °F 68% 29.98 in 10.0 mi East 8.1 mph - N/A   Scattered Clouds
8:53 AM 80.1 °F 82.3 °F 66.9 °F 64% 29.98 in 10.0 mi East 10.4 mph - N/A   Mostly Cloudy
9:53 AM 82.0 °F 84.9 °F 68.0 °F 62% 29.99 in 10.0 mi ENE 10.4 mph - N/A   Mostly Cloudy
10:53 AM 82.0 °F 84.9 °F 68.0 °F 62% 30.00 in 10.0 mi ENE 12.7 mph - N/A   Mostly Cloudy
11:53 AM 81.0 °F 83.8 °F 68.0 °F 65% 30.01 in 10.0 mi ENE 12.7 mph - N/A   Mostly Cloudy
12:53 PM 82.0 °F 84.9 °F 68.0 °F 62% 30.00 in 10.0 mi East 15.0 mph - N/A   Mostly Cloudy
1:53 PM 82.9 °F 85.8 °F 68.0 °F 60% 29.99 in 10.0 mi East 11.5 mph - N/A   Overcast
2:53 PM 82.0 °F 84.5 °F 66.9 °F 60% 29.98 in 10.0 mi NE 11.5 mph - N/A   Mostly Cloudy
3:53 PM 82.9 °F 85.8 °F 68.0 °F 60% 29.97 in 10.0 mi NE 12.7 mph - N/A   Mostly Cloudy
4:53 PM 80.1 °F 83.6 °F 71.1 °F 74% 29.98 in 10.0 mi ENE 12.7 mph - 0.00 in   Mostly Cloudy
5:53 PM 80.1 °F 83.2 °F 70.0 °F 71% 29.98 in 10.0 mi ENE 15.0 mph - 0.00 in   Mostly Cloudy
6:53 PM 79.0 °F - 70.0 °F 74% 30.00 in 10.0 mi East 16.1 mph - N/A   Mostly Cloudy
7:53 PM 80.1 °F 82.3 °F 66.9 °F 64% 30.00 in 10.0 mi ENE 16.1 mph - N/A   Mostly Cloudy
8:53 PM 79.0 °F - 66.9 °F 66% 30.02 in 10.0 mi ENE 13.8 mph 19.6 mph N/A   Mostly Cloudy
9:53 PM 79.0 °F - 66.0 °F 64% 30.02 in 10.0 mi ENE 13.8 mph - N/A   Partly Cloudy
10:53 PM 79.0 °F - 64.9 °F 62% 30.03 in 10.0 mi ENE 15.0 mph - N/A   Clear
11:53 PM 79.0 °F - 64.0 °F 60% 30.03 in 10.0 mi East 12.7 mph - N/A   Partly Cloudy